Weather Roundup
Issued by NWS Chicago, IL

Home | Current Version | Previous Version | Text Only | Print | Product List | Glossary On
Versions: 1 2 3 4 5 6 7 8 9 10 11 12 13 14 15 16 17 18 19 20 21 22 23 24 25 26 27 28 29 30 31 32 33 34 35 36 37 38 39 40 41 42 43 44 45 46 47 48 49 50
000
NZUS59 KLOT 281400
HRRLOT

CHICAGO AREA WEATHER ROUNDUP
NATIONAL WEATHER SERVICE CHICAGO/ROMEOVILLE IL
800 AM CST SAT FEB 28 2015

NOTE: "FAIR" INDICATES FEW OR NO CLOUDS BELOW 12,000 FEET WITH NO
SIGNIFICANT WEATHER AND/OR OBSTRUCTIONS TO VISIBILITY.

* THESE STATIONS ARE NOT UNDER NWS QUALITY CONTROL. THEY ALSO MAY NOT
  REPORT WEATHER SUCH AS PRECIPITATION OR FOG.

ILZ005-006-012>014-019>023-281500-
NORTHEAST ILLINOIS

CITY           SKY/WX    TMP DP  RH WIND       PRES   REMARKS
OHARE          MOSUNNY    0  -3  87 S3        30.71R
MIDWAY         MOSUNNY    5   2  87 S5        30.73R WCI  -4
AURORA         PTSUNNY  -11 -16  78 CALM      30.71R
LANSING*       MOSUNNY   -6 -10  81 CALM      30.74R
WAUKEGAN       MOSUNNY    0  -5  79 SW5       30.70R WCI -10
DUPAGE AIRPORT MOSUNNY   -6  -9  86 CALM      30.69S
WHEELING       MOSUNNY   -1  -5  82 CALM      30.73R
NORTHERLY IS     N/A      9  -3  58 SW1         N/A
$$

WIZ051-052-058>065-066-070>072-281500-
SOUTHEAST WISCONSIN

CITY           SKY/WX    TMP DP  RH WIND       PRES   REMARKS
MILWAUKEE      MOSUNNY   -1  -8  72 SW6       30.69R WCI -13
KENOSHA*       MOSUNNY   -4  -8  83 SW6       30.69R WCI -16
RACINE*        MOSUNNY    0  -8  69 SW3       30.71R
WAUKESHA       SUNNY      0  -8  71 CALM      30.67R
$$

INZ001>003-010>013-019-020-281500-
NORTHWEST INDIANA

CITY           SKY/WX    TMP DP  RH WIND       PRES   REMARKS
GARY*          MOSUNNY    3  -4  72 CALM      30.74R
MICHIGAN CITY* NOT AVBL
RENSSELAER*    NOT AVBL
$$

LMZ740>746-281500-
SOUTHERN LAKE MICHIGAN

STATION/POSITION TIME  SKY/WX   TEMP WIND        PRES    VSBY
                                AIR  DIR/SP/G
                 (UTC)          (F)  (DEG/KT/KT) (MB)    (MI)
HARRISON CRIB    1300             9  200/  8/ 10   N/A
BURNHAM HARBOR   1400             9  200/  2/  4   N/A
CALUMET HARBOR   1300             4  180/  3/  3 1039.0R
BURNS HARBOR     NOT AVBL
MICHIGAN CITY    1300             1  140/  5/  6   N/A
$$

ABBREVIATIONS USED IN REMARKS
   TC - TEMPERATURE IN CELSIUS
  WCI - WIND CHILL INDEX
   HX - HEAT INDEX
  VSB - VISIBILITY
$$


USA.gov is the U.S. government's official web portal to all federal, state and local government web resources and services.